SCP
0 0 0 0 0 0 0 0 0 0 0 -0 0 0 0 0 0 0 0 0 0 0 0 0 0 0 0 0 0 0 0 0 0 0 0 0 0 0 0 0 0 0 0 0
0 0 0 0 0 0 0 0 0 0 0 0 0 0 0 0 0 0 0 0 0 0 0 0 0 0 0 0 0 0 0 0 0 0 0 0 0 0 0 0 0 -0 0 0
0 0 0 0 0 0 0 0 0 0 0 0 0 0 0 0 0 0 0 0 0 0 0 0 0 0 0 0 0 0 0 0 0 0 0 0 0 0 0 0 0 0 0 0
0 0 0 0 0 0 0 0 0 0 0 0 0 0 0 0 0 0 0 0 0 0 0 0 0 0 0 0 0 0 0 0 0 0 0 0 0 0 0 0 0 0 0 0
0 0 0 0 0 0 0 0 0 0 0 0 0 0 0 0 0 0 0 0 0 0 0 0 0 0 0 0 0 0 0 0 0 0 0 0 0 0 0 0 0 0 0 0
0 0 0 0 0 0 0 0 0 0 0 0 0 0 0 0 0 0 0 0 0 0 0 0 0 0 0 0 0 0 0 0 0 0 0 0 0 0 0 0 -0 0 0 0
0 0 0 0 0 0 0 0 0 0 0 0 0 0 0 0 0 0 0 0 0 0 0 0 0 0 0 0 0 0 0 0 0 0 0 0 0 0 0 0 0 0 0 0
0 0 0 0 0 0 0 0 0 0 0 0 0 0 0 0 0 0 0 0 0 0 0 0 0 0 0 0 0 0 0 0 0 0 0 0 0 0 0 0 0 0 0 0
0 0 0 0 0 0 0 0 0 0 0 0 0 0 0 0 0 0 0 0 0 0 0 0 0 0 0 0 0 0 0 0 0 0 0 0 0 0 0 0 0 0 0 0
0 0 0 0 0 0 0 0 0 0 0 0 0 0 0 0 0 0 0 0 0 0 0 0 0 0 0 0 0 0 0 0 0 0 0 0 0 0 0 0 0 0 0 0
0 0 0 0 0 0 0 0 0 0 0 0 0 0 0 0 0 0 0 0 0 0 0 0 0 0 0 0 0 0 0 0 0 0 0 0 0 0 0 0 0 0 0 0
0 0 0 0 0 0 0 0 0 0 0 0 0 0 0 0 0 0 0 0 0 0 0 0 0 0 0 0 0 0 0 0 0 0 0 0 0 0 0 0 0 0 0 0
0 0 0 0 0 0 0 0 0 0 0 0 0 0 0 0 0 0 0 0 0 0 0 0 0 0 0 0 0 0 0 0 0 0 0 0 0 0 0 0 0 0 0 0
0 0 0 0 0 0 0 0 0 0 0 0 0 0 0 0 0 0 0 0 0 0 0 0 0 0 0 0 0 0 0 0 0 0 0 0 0 0 0 0 0 0 0 0
0 0 0 0 0 0 0 0 0 0 0 0 0 0 0 0 0 0 0 0 0 0 0 0 0 0 0 0 0 0 0 0 0 0 0 0 0 0 0 0 0 0 0 0
0 0 0 0 0 0 0 0 0 0 0 0 0 0 0 0 0 0 0 0 0 0 0 0 0 0 0 0 0 0 0 0 0 0 0 0 0 -0 -0 -0 -0 -0 -0 -0
0 0 0 0 0 0 0 0 0 0 0 0 0 0 0 0 0 0 0 0 0 0 0 0 0 0 0 0 0 0 0 0 0 0 0 0 -0 -0 -0 -0 -0 -0 -0 -0
0 0 0 0 0 0 0 0 0 0 0 0 0 0 0 0 0 0 0 0 0 0 0 0 0 0 0 0 0 0 0 0 0 0 0 0 0 0 0 0 -0 -0 -0 -0
0 0 0 0 0 0 0 0 0 0 0 0 0 0 0 0 0 0 0 0 0 0 0 0 0 0 0 0 0 0 0 0 0 0 0 0 0 0 0 0 -0 -0 -0 -0
0 0 0 0 0 0 0 0 0 0 0 0 0 0 0 0 0 0 0 0 0 0 0 0 0 0 0 0 0 0 0 0 0 0 0 0 0 0 0 0 0 -0 -0 -0
0 0 0 0 0 0 0 0 0 0 0 0 0 0 0 0 0 0 0 0 0 0 0 0 0 0 0 0 0 0 0 0 0 0 0 0 0 0 0 0 0 -0 -0 -0
0 0 0 0 0 0 0 0 0 0 0 0 0 0 0 0 0 0 0 0 0 0 0 0 0 0 0 0 0 0 0 0 0 0 0 0 0 0 0 0 0 0 0 -0
0 0 0 0 0 0 0 0 0 0 0 0 0 0 0 0 0 0 0 0 0 0 0 0 0 0 0 0 0 0 0 0 0 0 0 0 0 0 0 0 0 0 0 0
0 0 0 0 0 0 0 0 0 0 0 0 0 0 0 0 0 0 0 0 0 0 0 0 0 0 0 0 0 0 0 0 0 0 0 0 0 0 0 0 0 0 0 0
0 0 0 0 0 0 0 0 0 0 0 0 0 0 0 0 0 0 0 0 0 0 0 0 0 0 0 0 0 0 0 0 0 0 0 0 0 0 0 0 0 0 0 0
0 0 0 0 0 0 0 0 0 0 0 -0 -0 0 0 0 0 0 0 0 0 0 0 0 0 0 0 0 0 0 0 0 0 0 0 0 0 0 0 0 0 0 0 0
0 0 0 0 0 0 0 0 0 0 -0 -0 0 0 -0 -0 -0 0 0 0 0 0 0 0 0 0 0 0 0 0 0 0 0 0 0 0 0 0 0 0 0 0 0 0
Wind_Speed_500mb
3 13 13 11 11 19 8 8 7 12 17 22 16 17 28 24 23 22 28 22 22 25 27 33 32 28 21 29 28 29 25 37 46 24 16 18 41 46 44 46 47 47 41 36
10 7 15 17 26 26 13 10 17 20 0 13 32 32 31 26 28 31 30 28 28 26 28 30 28 31 31 28 27 33 23 15 29 46 46 31 22 25 43 47 39 46 42 43
2 10 12 12 11 13 5 10 12 10 12 38 21 29 35 31 30 36 38 35 35 35 34 31 28 27 24 23 20 17 16 15 21 28 33 38 40 30 33 41 33 31 36 39
3 6 5 11 9 7 18 10 6 15 32 32 36 35 36 34 36 40 41 38 37 36 37 36 35 35 34 29 26 27 29 27 24 22 27 40 41 38 43 43 41 45 43 34
7 2 6 5 5 8 7 7 16 25 26 32 42 37 26 33 39 44 46 41 37 33 32 33 32 30 30 28 24 20 17 14 14 18 26 27 22 34 29 40 36 39 48 49
4 7 8 8 11 32 10 7 28 47 46 44 49 11 11 49 45 43 38 36 35 30 26 23 25 19 15 15 12 10 9 8 7 8 12 20 28 23 24 25 36 34 44 46
3 3 8 9 17 21 11 9 28 50 67 62 33 16 63 63 51 40 36 37 32 26 20 15 15 14 12 8 7 5 7 10 12 13 15 16 18 19 21 26 26 29 29 27
4 6 6 9 12 2 6 4 18 45 61 65 31 42 75 69 60 50 42 35 28 23 17 14 13 13 14 15 15 17 19 19 19 20 22 23 22 22 23 24 27 28 29 26
11 10 11 3 11 11 4 6 23 49 55 63 48 77 77 70 61 50 40 35 28 21 18 14 10 10 13 13 13 14 16 15 14 16 18 19 20 22 23 26 27 28 33 34
7 6 10 13 15 12 12 10 17 42 44 44 55 73 74 65 56 49 39 32 24 17 12 13 16 15 15 14 13 13 14 16 16 14 15 15 16 15 16 20 23 27 30 35
3 8 3 18 16 18 15 17 23 28 34 44 56 72 66 60 52 44 38 31 21 13 12 12 10 10 11 12 12 11 9 11 12 12 12 12 13 14 15 18 22 24 27 32
10 19 17 14 27 24 26 29 30 37 44 51 58 63 63 56 49 43 39 30 20 14 10 6 6 8 9 8 7 9 8 8 10 10 10 12 13 11 14 18 19 22 26 31
7 20 18 8 11 10 27 34 44 39 40 48 56 51 54 56 53 45 40 32 21 15 13 7 9 11 7 5 5 6 7 7 6 6 8 10 12 14 15 11 18 21 25 29
13 13 9 9 8 11 18 23 30 47 49 51 52 62 61 63 60 55 47 34 21 17 15 12 10 8 10 6 4 7 8 9 9 10 12 15 18 22 25 29 30 28 29 35
23 23 19 14 13 19 26 29 29 35 52 63 57 63 69 70 66 58 45 36 25 23 24 20 13 9 10 4 2 4 7 9 11 14 18 23 26 28 32 36 40 45 46 44
21 14 11 18 27 25 27 30 36 39 50 62 65 71 72 68 60 54 48 47 41 37 34 24 16 10 9 8 4 4 7 10 12 14 19 25 30 36 41 46 51 54 58 63
17 15 16 23 23 21 22 22 22 26 31 48 67 76 67 62 61 56 54 54 49 45 35 25 15 17 12 15 10 9 10 12 13 18 23 28 34 40 46 52 58 62 64 66
20 15 16 15 13 13 18 19 23 27 30 38 38 50 55 74 65 66 63 64 62 59 52 39 29 25 17 16 13 9 9 11 15 16 22 28 34 41 46 52 59 64 66 67
19 15 15 15 14 18 25 25 28 27 31 37 46 52 55 44 58 69 75 79 76 72 61 53 44 38 27 21 15 10 11 11 15 17 22 29 35 42 48 51 58 64 68 71
17 15 11 12 18 19 21 20 18 23 30 30 46 42 43 38 20 39 54 77 79 75 73 63 57 48 33 27 19 13 9 10 16 22 25 29 35 40 47 50 54 60 64 65
10 8 7 9 9 14 18 18 18 19 17 26 36 36 37 46 45 45 36 49 54 69 90 63 62 57 36 30 24 16 11 14 19 23 25 28 31 36 42 50 55 58 60 63
9 4 2 5 8 13 15 18 20 27 32 35 34 35 36 34 38 49 52 66 45 56 71 78 63 58 34 30 26 18 19 21 21 22 25 27 32 37 42 48 57 60 61 64
3 3 5 9 10 15 20 27 35 39 41 42 42 41 42 43 43 39 39 41 48 41 51 67 53 57 43 35 28 22 25 28 26 24 26 31 35 39 44 51 57 66 61 62
2 4 8 13 18 25 32 25 24 29 36 40 46 52 54 45 45 41 34 33 35 49 56 56 54 58 38 28 27 23 26 29 27 24 28 32 36 41 46 50 56 63 61 57
6 10 10 16 18 14 22 24 32 52 54 30 18 19 30 46 47 33 24 23 25 29 35 35 33 35 33 28 23 26 25 26 23 24 31 33 35 39 46 49 55 60 59 53
16 12 7 14 19 18 21 28 34 44 52 33 30 20 10 16 31 27 17 13 18 34 33 32 34 32 32 30 25 26 26 23 25 27 33 35 37 38 44 49 53 55 57 52
10 10 21 21 20 14 14 19 22 27 35 40 41 42 26 28 20 21 27 32 37 30 24 23 26 27 28 32 31 31 32 30 33 34 36 38 40 38 43 46 50 50 51 52
Wind_Direction_500mb
176 128 62 34 15 350 227 190 141 188 176 208 172 155 157 141 132 127 120 133 142 138 164 177 178 166 187 179 182 204 210 239 226 219 239 257 257 253 243 244 247 246 249 257
21 246 68 8 355 353 6 84 79 108 256 140 160 155 152 146 130 117 116 119 120 132 141 141 157 178 183 186 182 196 220 227 210 234 257 256 300 276 258 248 249 252 252 255
329 353 113 340 319 337 336 39 119 170 197 153 148 151 158 156 146 134 126 120 118 114 116 124 140 150 156 168 183 196 206 213 225 233 240 243 271 266 257 256 267 271 252 256
171 43 137 241 207 184 105 44 30 97 134 146 150 155 158 162 155 142 130 126 127 126 123 120 118 124 136 142 150 169 182 192 200 208 221 235 259 253 239 254 268 267 259 276
119 109 296 99 281 265 115 357 122 121 123 127 139 140 149 170 157 145 140 141 137 132 129 131 136 132 130 128 133 142 143 163 185 211 223 232 247 238 253 244 250 264 254 274
113 122 194 244 310 330 319 236 168 148 148 148 146 150 205 166 160 154 153 152 146 143 139 135 130 149 155 137 133 132 138 159 174 207 236 237 240 254 255 265 271 264 259 273
124 149 296 275 297 335 168 253 177 173 162 164 173 200 167 170 168 165 160 158 161 163 169 169 173 195 225 241 250 257 257 256 257 254 256 260 265 271 266 263 261 275 281 270
89 92 263 330 330 334 241 354 182 187 178 171 174 166 163 167 167 170 170 174 185 195 196 201 220 241 243 246 256 270 276 280 278 272 267 266 264 263 270 271 266 267 281 279
160 213 243 17 123 124 59 21 192 181 179 179 173 169 171 172 174 177 184 190 197 206 206 212 238 260 260 260 264 271 279 279 270 269 275 273 266 264 264 264 263 261 263 268
78 254 205 166 149 151 153 123 138 185 180 191 177 177 175 175 175 179 187 194 199 207 224 257 271 282 288 288 288 285 280 276 275 267 263 274 283 283 277 275 275 277 278 279
270 282 260 211 205 185 178 165 156 170 189 198 194 182 182 182 185 190 191 192 195 212 243 245 254 282 293 301 308 311 298 281 274 271 270 268 267 271 281 292 295 296 296 296
211 209 205 209 205 205 191 188 187 181 182 189 192 191 193 196 198 196 194 196 208 237 235 237 257 273 287 286 295 308 310 294 279 274 273 275 280 283 289 285 288 294 297 298
218 202 190 185 212 229 230 218 203 213 215 206 207 213 214 212 204 205 201 203 215 237 224 257 283 278 247 225 314 323 311 304 293 296 301 306 309 309 304 312 311 308 307 307
191 175 199 245 275 260 253 262 255 237 236 229 224 212 213 206 200 202 204 209 209 216 219 246 275 244 209 206 355 10 9 4 359 359 1 358 353 348 343 336 331 328 325 321
205 211 240 263 255 264 267 270 268 266 239 221 226 221 205 202 204 207 212 209 211 216 221 236 237 232 224 228 337 24 27 17 15 13 10 7 1 354 350 346 342 337 333 328
195 211 244 290 301 288 268 267 272 276 260 238 233 218 208 209 211 209 213 210 211 219 225 234 227 229 239 232 329 319 340 341 345 352 355 353 353 354 353 351 348 344 340 335
195 235 285 295 279 269 276 282 292 293 276 243 220 211 207 215 212 213 217 220 228 232 225 235 230 222 240 229 261 303 310 327 332 339 345 349 351 353 354 352 349 347 343 337
234 263 280 275 279 272 282 290 289 278 273 256 248 233 219 219 227 222 224 226 226 227 226 231 231 232 232 228 241 278 287 323 333 334 348 350 351 353 352 351 350 345 341 336
222 257 263 263 276 279 282 282 285 286 285 272 237 227 216 233 232 232 227 223 226 225 229 231 229 231 229 221 231 254 275 299 329 332 335 342 348 351 350 350 349 348 344 338
224 232 225 257 279 286 278 287 302 291 285 275 263 247 236 226 247 232 234 234 232 235 232 229 225 227 226 219 228 244 273 305 325 327 320 324 335 341 346 344 343 345 344 339
176 199 229 242 275 276 274 281 271 278 297 281 263 255 249 226 235 250 250 242 244 243 231 230 228 231 221 219 228 238 271 299 309 316 312 313 319 325 330 340 339 339 340 340
131 135 333 302 291 276 276 275 271 274 274 269 264 265 263 257 255 247 257 246 245 244 232 235 228 219 217 213 226 241 260 278 293 301 309 320 315 318 321 327 337 336 337 339
180 232 308 311 301 304 303 301 297 293 287 277 269 263 257 255 254 254 258 256 247 239 242 239 224 211 207 214 232 255 268 276 287 293 308 310 316 320 323 326 330 335 331 334
307 259 292 307 308 305 313 327 342 345 322 293 277 263 252 244 243 249 260 269 258 244 229 231 228 212 209 194 221 259 275 280 287 293 313 311 315 316 316 317 323 328 328 330
270 274 302 307 312 90 81 47 19 10 2 342 288 292 265 236 232 241 263 279 257 223 217 213 209 193 204 214 232 257 278 284 288 295 305 311 314 313 313 313 319 323 328 327
250 262 297 114 113 99 73 39 23 16 22 37 30 0 302 214 212 229 243 207 193 195 174 194 201 207 217 225 238 258 267 286 286 295 299 308 316 318 320 316 315 320 330 328
235 156 135 121 110 91 46 19 7 11 41 63 51 46 56 99 98 132 132 133 143 159 184 191 207 217 228 235 239 259 264 279 286 288 299 300 315 322 322 316 314 320 329 333
Wind_Speed_850mb
3 13 13 11 11 19 8 8 7 12 17 22 16 17 28 24 23 22 28 22 22 25 27 33 32 28 21 29 28 29 25 37 46 24 16 18 41 46 44 46 47 47 41 36
10 7 15 17 26 26 13 10 17 20 0 13 32 32 31 26 28 31 30 28 28 26 28 30 28 31 31 28 27 33 23 15 29 46 46 31 22 25 43 47 39 46 42 43
2 10 12 12 11 13 5 10 12 10 12 38 21 29 35 31 30 36 38 35 35 35 34 31 28 27 24 23 20 17 16 15 21 28 33 38 40 30 33 41 33 31 36 39
3 6 5 11 9 7 18 10 6 15 32 32 36 35 36 34 36 40 41 38 37 36 37 36 35 35 34 29 26 27 29 27 24 22 27 40 41 38 43 43 41 45 43 34
7 2 6 5 5 8 7 7 16 25 26 32 42 37 26 33 39 44 46 41 37 33 32 33 32 30 30 28 24 20 17 14 14 18 26 27 22 34 29 40 36 39 48 49
4 7 8 8 11 32 10 7 28 47 46 44 49 11 11 49 45 43 38 36 35 30 26 23 25 19 15 15 12 10 9 8 7 8 12 20 28 23 24 25 36 34 44 46
3 3 8 9 17 21 11 9 28 50 67 62 33 16 63 63 51 40 36 37 32 26 20 15 15 14 12 8 7 5 7 10 12 13 15 16 18 19 21 26 26 29 29 27
4 6 6 9 12 2 6 4 18 45 61 65 31 42 75 69 60 50 42 35 28 23 17 14 13 13 14 15 15 17 19 19 19 20 22 23 22 22 23 24 27 28 29 26
11 10 11 3 11 11 4 6 23 49 55 63 48 77 77 70 61 50 40 35 28 21 18 14 10 10 13 13 13 14 16 15 14 16 18 19 20 22 23 26 27 28 33 34
7 6 10 13 15 12 12 10 17 42 44 44 55 73 74 65 56 49 39 32 24 17 12 13 16 15 15 14 13 13 14 16 16 14 15 15 16 15 16 20 23 27 30 35
3 8 3 18 16 18 15 17 23 28 34 44 56 72 66 60 52 44 38 31 21 13 12 12 10 10 11 12 12 11 9 11 12 12 12 12 13 14 15 18 22 24 27 32
10 19 17 14 27 24 26 29 30 37 44 51 58 63 63 56 49 43 39 30 20 14 10 6 6 8 9 8 7 9 8 8 10 10 10 12 13 11 14 18 19 22 26 31
7 20 18 8 11 10 27 34 44 39 40 48 56 51 54 56 53 45 40 32 21 15 13 7 9 11 7 5 5 6 7 7 6 6 8 10 12 14 15 11 18 21 25 29
13 13 9 9 8 11 18 23 30 47 49 51 52 62 61 63 60 55 47 34 21 17 15 12 10 8 10 6 4 7 8 9 9 10 12 15 18 22 25 29 30 28 29 35
23 23 19 14 13 19 26 29 29 35 52 63 57 63 69 70 66 58 45 36 25 23 24 20 13 9 10 4 2 4 7 9 11 14 18 23 26 28 32 36 40 45 46 44
21 14 11 18 27 25 27 30 36 39 50 62 65 71 72 68 60 54 48 47 41 37 34 24 16 10 9 8 4 4 7 10 12 14 19 25 30 36 41 46 51 54 58 63
17 15 16 23 23 21 22 22 22 26 31 48 67 76 67 62 61 56 54 54 49 45 35 25 15 17 12 15 10 9 10 12 13 18 23 28 34 40 46 52 58 62 64 66
20 15 16 15 13 13 18 19 23 27 30 38 38 50 55 74 65 66 63 64 62 59 52 39 29 25 17 16 13 9 9 11 15 16 22 28 34 41 46 52 59 64 66 67
19 15 15 15 14 18 25 25 28 27 31 37 46 52 55 44 58 69 75 79 76 72 61 53 44 38 27 21 15 10 11 11 15 17 22 29 35 42 48 51 58 64 68 71
17 15 11 12 18 19 21 20 18 23 30 30 46 42 43 38 20 39 54 77 79 75 73 63 57 48 33 27 19 13 9 10 16 22 25 29 35 40 47 50 54 60 64 65
10 8 7 9 9 14 18 18 18 19 17 26 36 36 37 46 45 45 36 49 54 69 90 63 62 57 36 30 24 16 11 14 19 23 25 28 31 36 42 50 55 58 60 63
9 4 2 5 8 13 15 18 20 27 32 35 34 35 36 34 38 49 52 66 45 56 71 78 63 58 34 30 26 18 19 21 21 22 25 27 32 37 42 48 57 60 61 64
3 3 5 9 10 15 20 27 35 39 41 42 42 41 42 43 43 39 39 41 48 41 51 67 53 57 43 35 28 22 25 28 26 24 26 31 35 39 44 51 57 66 61 62
2 4 8 13 18 25 32 25 24 29 36 40 46 52 54 45 45 41 34 33 35 49 56 56 54 58 38 28 27 23 26 29 27 24 28 32 36 41 46 50 56 63 61 57
6 10 10 16 18 14 22 24 32 52 54 30 18 19 30 46 47 33 24 23 25 29 35 35 33 35 33 28 23 26 25 26 23 24 31 33 35 39 46 49 55 60 59 53
16 12 7 14 19 18 21 28 34 44 52 33 30 20 10 16 31 27 17 13 18 34 33 32 34 32 32 30 25 26 26 23 25 27 33 35 37 38 44 49 53 55 57 52
10 10 21 21 20 14 14 19 22 27 35 40 41 42 26 28 20 21 27 32 37 30 24 23 26 27 28 32 31 31 32 30 33 34 36 38 40 38 43 46 50 50 51 52
Wind_Direction_850mb
176 128 62 34 15 350 227 190 141 188 176 208 172 155 157 141 132 127 120 133 142 138 164 177 178 166 187 179 182 204 210 239 226 219 239 257 257 253 243 244 247 246 249 257
21 246 68 8 355 353 6 84 79 108 256 140 160 155 152 146 130 117 116 119 120 132 141 141 157 178 183 186 182 196 220 227 210 234 257 256 300 276 258 248 249 252 252 255
329 353 113 340 319 337 336 39 119 170 197 153 148 151 158 156 146 134 126 120 118 114 116 124 140 150 156 168 183 196 206 213 225 233 240 243 271 266 257 256 267 271 252 256
171 43 137 241 207 184 105 44 30 97 134 146 150 155 158 162 155 142 130 126 127 126 123 120 118 124 136 142 150 169 182 192 200 208 221 235 259 253 239 254 268 267 259 276
119 109 296 99 281 265 115 357 122 121 123 127 139 140 149 170 157 145 140 141 137 132 129 131 136 132 130 128 133 142 143 163 185 211 223 232 247 238 253 244 250 264 254 274
113 122 194 244 310 330 319 236 168 148 148 148 146 150 205 166 160 154 153 152 146 143 139 135 130 149 155 137 133 132 138 159 174 207 236 237 240 254 255 265 271 264 259 273
124 149 296 275 297 335 168 253 177 173 162 164 173 200 167 170 168 165 160 158 161 163 169 169 173 195 225 241 250 257 257 256 257 254 256 260 265 271 266 263 261 275 281 270
89 92 263 330 330 334 241 354 182 187 178 171 174 166 163 167 167 170 170 174 185 195 196 201 220 241 243 246 256 270 276 280 278 272 267 266 264 263 270 271 266 267 281 279
160 213 243 17 123 124 59 21 192 181 179 179 173 169 171 172 174 177 184 190 197 206 206 212 238 260 260 260 264 271 279 279 270 269 275 273 266 264 264 264 263 261 263 268
78 254 205 166 149 151 153 123 138 185 180 191 177 177 175 175 175 179 187 194 199 207 224 257 271 282 288 288 288 285 280 276 275 267 263 274 283 283 277 275 275 277 278 279
270 282 260 211 205 185 178 165 156 170 189 198 194 182 182 182 185 190 191 192 195 212 243 245 254 282 293 301 308 311 298 281 274 271 270 268 267 271 281 292 295 296 296 296
211 209 205 209 205 205 191 188 187 181 182 189 192 191 193 196 198 196 194 196 208 237 235 237 257 273 287 286 295 308 310 294 279 274 273 275 280 283 289 285 288 294 297 298
218 202 190 185 212 229 230 218 203 213 215 206 207 213 214 212 204 205 201 203 215 237 224 257 283 278 247 225 314 323 311 304 293 296 301 306 309 309 304 312 311 308 307 307
191 175 199 245 275 260 253 262 255 237 236 229 224 212 213 206 200 202 204 209 209 216 219 246 275 244 209 206 355 10 9 4 359 359 1 358 353 348 343 336 331 328 325 321
205 211 240 263 255 264 267 270 268 266 239 221 226 221 205 202 204 207 212 209 211 216 221 236 237 232 224 228 337 24 27 17 15 13 10 7 1 354 350 346 342 337 333 328
195 211 244 290 301 288 268 267 272 276 260 238 233 218 208 209 211 209 213 210 211 219 225 234 227 229 239 232 329 319 340 341 345 352 355 353 353 354 353 351 348 344 340 335
195 235 285 295 279 269 276 282 292 293 276 243 220 211 207 215 212 213 217 220 228 232 225 235 230 222 240 229 261 303 310 327 332 339 345 349 351 353 354 352 349 347 343 337
234 263 280 275 279 272 282 290 289 278 273 256 248 233 219 219 227 222 224 226 226 227 226 231 231 232 232 228 241 278 287 323 333 334 348 350 351 353 352 351 350 345 341 336
222 257 263 263 276 279 282 282 285 286 285 272 237 227 216 233 232 232 227 223 226 225 229 231 229 231 229 221 231 254 275 299 329 332 335 342 348 351 350 350 349 348 344 338
224 232 225 257 279 286 278 287 302 291 285 275 263 247 236 226 247 232 234 234 232 235 232 229 225 227 226 219 228 244 273 305 325 327 320 324 335 341 346 344 343 345 344 339
176 199 229 242 275 276 274 281 271 278 297 281 263 255 249 226 235 250 250 242 244 243 231 230 228 231 221 219 228 238 271 299 309 316 312 313 319 325 330 340 339 339 340 340
131 135 333 302 291 276 276 275 271 274 274 269 264 265 263 257 255 247 257 246 245 244 232 235 228 219 217 213 226 241 260 278 293 301 309 320 315 318 321 327 337 336 337 339
180 232 308 311 301 304 303 301 297 293 287 277 269 263 257 255 254 254 258 256 247 239 242 239 224 211 207 214 232 255 268 276 287 293 308 310 316 320 323 326 330 335 331 334
307 259 292 307 308 305 313 327 342 345 322 293 277 263 252 244 243 249 260 269 258 244 229 231 228 212 209 194 221 259 275 280 287 293 313 311 315 316 316 317 323 328 328 330
270 274 302 307 312 90 81 47 19 10 2 342 288 292 265 236 232 241 263 279 257 223 217 213 209 193 204 214 232 257 278 284 288 295 305 311 314 313 313 313 319 323 328 327
250 262 297 114 113 99 73 39 23 16 22 37 30 0 302 214 212 229 243 207 193 195 174 194 201 207 217 225 238 258 267 286 286 295 299 308 316 318 320 316 315 320 330 328
235 156 135 121 110 91 46 19 7 11 41 63 51 46 56 99 98 132 132 133 143 159 184 191 207 217 228 235 239 259 264 279 286 288 299 300 315 322 322 316 314 320 329 333